AirNav   Free SoundLink Mini II speaker
 
 835 users online  

KHBZ Heber Springs Municipal Airport
Heber Springs, Arkansas, USA

GOING TO HEBER SPRINGS?


FAA INFORMATION EFFECTIVE 26 MARCH 2020

Location

FAA Identifier: HBZ
Lat/Long: 35-30-42.0980N 092-00-46.8340W
35-30.701633N 092-00.780567W
35.5116939,-92.0130094
(estimated)
Elevation: 632.3 ft. / 192.7 m (surveyed)
Variation: 00E (2020)
From city: 2 miles NE of HEBER SPRINGS, AR
Time zone: UTC -5 (UTC -6 during Standard Time)
Zip code: 72543

Airport Operations

Airport use: Open to the public
Activation date: 10/1968
Control tower: no
ARTCC: MEMPHIS CENTER
FSS: JONESBORO FLIGHT SERVICE STATION
NOTAMs facility: JBR (NOTAM-D service available)
Attendance: 0800-1700
Pattern altitude: 1430.3 ft. MSL
Wind indicator: lighted
Segmented circle: yes
Lights: DUSK-DAWN. ACTVT REIL RWY 06/24 AND MIRL RWY 06/24 - CTAF.
Beacon: white-green (lighted land airport)
Operates sunset to sunrise.

Airport Communications

CTAF/UNICOM: 122.7
  • APCH/DEP SVC PRVDD BY MEMPHIS ARTCC ON FREQS 126.85/281.55 (BRINKLEY RCAG).

Nearby radio navigation aids

NDB name  Hdg/Dist  Freq  Var  ID
TONEYVILLE360/33.629001ETYV - -.-- ...-

Airport Services

Fuel available: 100LL JET-A
SELF-SERVICE FUEL AVBL 24 HRS WITH CREDIT CARD (100LL & JET A)
Parking: tiedowns
Airframe service: MAJOR
Powerplant service: MAJOR
Bottled oxygen: NONE
Bulk oxygen: NONE

Runway Information

Runway 6/24

Dimensions: 4002 x 75 ft. / 1220 x 23 m
Surface: asphalt, in excellent condition
Weight bearing capacity: 
Single wheel: 12.5
Runway edge lights: medium intensity
RUNWAY 6  RUNWAY 24
Latitude: 35-30.534500N35-30.868667N
Longitude: 092-01.128333W092-00.432833W
Elevation: 620.4 ft.631.9 ft.
Traffic pattern: leftleft
Runway heading: 060240
Markings: nonprecision, in good conditionnonprecision, in good condition
Visual slope indicator: 2-light PAPI on left (3.00 degrees glide path)2-light PAPI on left (3.00 degrees glide path)
Runway end identifier lights: yesyes
Touchdown point: yes, no lightsyes, no lights
Obstructions: 30 ft. trees, 620 ft. from runway, 170 ft. right of centerline, 14:1 slope to clear20 ft. trees, 700 ft. from runway, 25:1 slope to clear

Airport Ownership and Management from official FAA records

Ownership: Publicly-owned
Owner: CITY OF HEBER SPRINGS
1001 WEST MAIN
HEBER SPRINGS, AR 72543
Phone 501-362-3635
Manager: CHARLES EVANS
2111 AIRPORT RD
HEBER SPRINGS, AR 72543
Phone 501-362-3294

Airport Operational Statistics

Aircraft based on the field: 36
Single engine airplanes: 32
Multi engine airplanes: 4
    
Aircraft operations: avg 53/day *
77% local general aviation
21% transient general aviation
3% military
* for 12-month period ending 31 July 2017

Additional Remarks

RWY 06/24 NO LINE OF SIGHT BTN RY ENDS.
FOR CD CTC MEMPHIS ARTCC AT 901-368-8453.

Instrument Procedures

NOTE: All procedures below are presented as PDF files. If you need a reader for these files, you should download the free Adobe Reader.

NOT FOR NAVIGATION. Please procure official charts for flight.
FAA instrument procedures published for use from 26 March 2020 at 0901Z to 23 April 2020 at 0900Z.

 
IAPs - Instrument Approach Procedures
RNAV (GPS) RWY 06   download (220KB)
RNAV (GPS) RWY 24   download (236KB)
NOTE: Special Take-Off Minimums/Departure Procedures apply   download (408KB)

Other nearby airports with instrument procedures:

2A2 - Holley Mountain Airpark (21 nm NW)
7M2 - Mountain View Airport-Wilcox Memorial Field (22 nm N)
KBVX - Batesville Regional Airport (22 nm NE)
KCCA - Clinton Municipal Airport (22 nm W)
KSRC - Searcy Municipal Airport (23 nm SE)
 
Loc | Ops | Rwys | IFR | FBO | Links
Com | Nav | Svcs | Stats | Notes
Area around KHBZ (Heber Springs Municipal Airport)
 
Road maps at: MapQuest Bing Google
 
Aerial photo
WARNING: Photo may not be current or correct
Aerial photo of KHBZ (Heber Springs Municipal Airport)
Photo courtesy of the Arkansas Department of Aeronautics
Taken in the Spring of 2007

Do you have a better or more recent aerial photo of Heber Springs Municipal Airport that you would like to share? If so, please send us your photo.

 
Sectional chart

 
Airport distance calculator
Flying to Heber Springs Municipal Airport? Find the distance to fly.

From to KHBZ

Sunrise and sunset
Times for 08-Apr-2020
 Local
(UTC-5)
 Zulu
(UTC)
Morning civil twilight06:1911:19
Sunrise06:4511:45
Sunset19:3500:35
Evening civil twilight20:0101:01

Current date and time
Zulu (UTC)  09-Apr-2020 00:06:15
Local (UTC-5)  08-Apr-2020 19:06:15
 
METAR
KSRC 
21nm SE 
082356Z AUTO 20012KT 10SM CLR 28/22 A2966 RMK AO2 SLP041 T02780217 10300 20272 56017
KBVX 
22nm NE 
082356Z AUTO 21011G16KT 10SM CLR 28/21 A2963 RMK AO2 LTG DSNT NE AND E SLP028 T02780211 10311 20278 56023
KCCA 
22nm W 
082355Z AUTO 19007KT 9SM CLR 29/20 A2965 RMK AO2 LTG DSNT N AND NE
KLRF 
36nm S 
082356Z AUTO 21011KT 10SM CLR 29/20 A2967 RMK AO2 SLP047 T02900199 10299 20265 56014 $
KCXW 
40nm SW 
082355Z AUTO 21012KT 9SM CLR 29/20 A2965 RMK A01
KM19 
42nm E 
082356Z AUTO 20015KT 10SM CLR 27/21 A2964 RMK AO2 LTG DSNT NW-NE SLP032 T02670211 10289 20261 56022
TAF
KLRF 
36nm S 
082310Z 0823/1005 22006KT 8000 HZ SCT250 QNH2966INS BECMG 0900/0901 20006KT 9999 NSW SCT250 QNH2969INS BECMG 0913/0914 03012G20KT 9999 FEW270 QNH3002INS BECMG 0917/0918 VRB06KT 9999 FEW230 QNH2992INS TX30/0823Z TN13/0913Z
NOTAMs
Click for the latest NOTAMs
NOTAMs are issued by the DoD/FAA and will open in a separate window not controlled by AirNav.

 

 
 

FBO, Fuel Providers, and Aircraft Ground Support

  
 Business Name 
 
 Contact 
 
 Services / Description 
 
Fuel Prices
 
Comments
  
Heber Springs Municipal Airport 501-362-3294
no information available

If you are affiliated with Heber Springs Municipal Airport and would like to show here your services, contact info, web link, logo, and more, click here
100LL Jet A
SS $4.79 $4.59 
 Updated 25-Mar-2020
 
   1 read write
SS=Self service
Update Fuel Prices
 

Would you like to see your business listed on this page?

 If your business provides an interesting product or service to pilots, flight crews, aircraft, or users of the Heber Springs Municipal Airport, you should consider listing it here.  To start the listing process, click on the button below
 
Add a business
 

Other Pages about Heber Springs Municipal Airport

Update a link
 
Copyright © AirNav, LLC. All rights reserved. Privacy Policy  Contact